Wetbulb
51.01 50.89 50.78 50.73 50.65 50.33 49.79 49.05 48.07 47.55 47.31 46.86 46.29 45.57 45.11 44.82 44.30 43.66 43.48 43.46 43.41 43.34 43.69 43.29 42.54 43.52 42.28 43.12 43.62 43.00 42.03 41.51 39.57 40.47 41.77 43.17 43.72 43.95 44.82 44.93 45.49 45.60 45.95
48.88 48.59 48.92 49.35 49.28 48.22 47.71 47.44 47.49 46.74 46.86 46.45 46.65 46.14 45.45 44.98 44.95 44.86 44.43 44.41 43.78 43.69 43.78 44.05 43.52 43.08 42.32 43.20 43.04 43.54 42.82 42.90 41.90 41.24 41.56 42.54 42.44 43.56 44.04 43.81 44.25 45.04 44.95
48.23 47.58 46.95 46.68 46.43 45.98 45.93 45.78 46.08 45.96 45.79 45.85 45.13 44.23 44.52 44.47 44.30 44.74 45.53 45.35 45.18 44.87 44.87 44.77 44.00 44.48 42.96 42.72 42.82 43.02 43.62 43.25 42.69 41.96 41.83 41.93 42.00 42.93 43.03 43.23 43.31 43.98 43.91
47.06 46.29 45.18 44.00 43.98 44.05 44.56 44.64 44.73 45.05 44.78 45.12 45.25 45.11 45.11 45.11 45.85 46.09 45.65 45.10 45.25 45.32 45.56 45.55 45.18 45.49 45.07 44.13 43.70 43.84 42.97 42.67 42.08 41.62 41.41 41.32 41.04 43.25 41.90 41.03 40.63 42.09 41.24
46.47 46.03 45.77 46.10 45.82 45.57 45.13 45.23 44.99 44.70 44.82 45.02 44.98 44.78 44.46 45.38 46.12 45.87 45.90 45.84 46.02 45.87 46.53 46.84 47.21 47.67 49.26 47.26 45.16 43.94 43.68 43.24 42.29 41.21 40.53 39.93 40.26 40.52 40.98 41.90 39.31 39.99 40.82
46.06 46.02 46.49 46.63 46.54 45.56 45.41 45.22 44.84 44.59 44.56 44.79 44.67 44.99 45.46 45.89 46.52 46.66 44.99 42.47 43.67 43.58 43.27 44.07 44.49 46.14 46.76 49.20 50.80 49.22 46.33 45.94 43.67 41.74 41.92 40.40 41.00 40.82 41.37 41.18 39.16 37.67 36.45
47.36 47.18 46.53 46.21 45.85 46.28 46.05 45.30 44.53 44.48 43.99 43.60 44.21 44.81 44.61 45.24 45.27 46.22 45.75 43.19 43.71 43.10 42.99 42.94 43.03 45.18 47.83 47.24 47.16 48.32 48.78 48.82 48.99 46.06 44.06 43.30 42.66 44.25 43.52 40.90 39.52 38.44 38.01
47.09 47.04 47.26 45.96 45.12 44.40 44.77 44.86 44.27 43.67 43.31 42.98 43.00 43.19 43.87 44.58 44.74 44.70 46.11 45.52 44.78 44.40 43.25 42.99 43.34 44.74 45.42 45.69 46.26 46.41 46.76 46.73 46.67 46.62 46.77 46.57 45.57 46.08 42.78 41.18 40.47 40.17 40.27
46.59 47.17 48.14 47.22 46.10 44.55 43.50 42.77 43.41 43.04 42.86 42.72 42.89 42.57 42.63 43.29 43.86 43.90 45.47 45.82 45.42 45.80 46.04 45.47 44.22 44.49 44.52 44.10 45.54 45.89 44.68 43.39 43.30 44.56 44.59 44.02 43.12 42.74 43.21 42.14 39.53 38.17 37.29
47.40 48.04 48.58 49.25 47.41 46.72 46.22 45.53 44.84 44.22 44.00 44.09 44.31 44.32 44.23 44.52 43.39 43.04 44.43 45.56 45.29 45.33 46.55 46.08 45.23 45.65 43.10 43.36 46.20 44.39 41.66 41.48 40.88 42.06 42.50 41.70 40.79 40.88 40.76 42.28 40.78 37.47 37.56
49.49 49.72 49.51 49.11 48.94 48.03 47.20 46.44 45.85 45.30 44.99 44.84 44.80 45.36 45.84 46.10 46.58 43.44 43.36 46.01 46.03 45.98 45.80 46.25 46.46 43.52 42.47 41.70 41.68 41.47 41.40 41.63 41.06 40.63 39.26 39.28 40.53 40.79 40.72 40.96 40.41 38.53 37.82
49.63 49.32 49.39 49.02 48.45 48.13 46.81 45.94 45.83 45.31 44.70 44.51 44.49 45.14 45.97 46.61 45.11 44.19 43.37 43.62 45.66 46.25 46.27 46.03 45.48 42.39 41.88 41.78 41.71 40.12 39.20 40.44 40.98 38.79 38.23 38.98 39.22 39.62 40.78 40.98 40.99 40.52 40.01
47.76 47.24 47.74 49.07 47.61 47.21 46.06 45.42 44.99 44.80 44.54 44.60 44.56 44.63 45.48 46.14 46.18 43.79 43.08 43.47 43.94 44.69 45.31 44.11 42.07 41.46 41.21 41.35 40.81 40.77 40.67 40.57 38.52 37.56 38.22 38.72 39.33 39.63 39.66 39.20 39.80 39.91 38.93
46.17 46.49 45.26 45.47 44.97 45.64 45.87 45.27 45.28 44.72 44.25 44.51 44.50 44.54 44.97 44.70 44.92 44.58 45.23 45.62 44.00 45.27 43.51 44.26 42.88 40.82 38.98 39.83 39.21 39.10 38.69 38.45 38.02 38.09 38.44 39.39 39.53 38.67 37.86 38.35 36.45 37.05 35.23
43.94 43.55 44.53 44.65 45.13 45.43 46.01 45.76 45.88 46.13 45.36 45.41 45.28 45.62 45.04 44.88 45.43 43.43 43.07 43.41 43.71 41.37 38.16 36.79 37.06 37.24 37.99 38.15 37.57 36.88 37.24 37.77 37.65 38.44 37.99 38.10 37.63 37.18 37.10 37.82 35.71 35.31 34.22
42.64 43.04 43.74 44.67 45.03 45.52 45.67 46.29 41.87 41.90 41.33 40.63 40.55 44.47 46.07 43.11 40.90 39.83 39.67 39.18 38.63 37.07 36.89 37.27 36.75 36.48 35.93 36.18 35.54 36.02 36.96 37.21 38.37 38.25 38.38 37.65 36.68 36.65 36.82 36.62 35.89 34.78 33.58
43.79 43.72 43.81 43.77 44.10 44.13 44.23 44.46 45.12 45.29 39.95 38.44 36.90 37.57 39.62 42.48 39.95 38.99 38.76 38.13 37.44 35.76 38.21 37.11 35.99 35.66 35.57 35.57 35.40 35.65 36.50 38.66 38.88 37.75 37.93 37.86 37.07 36.68 34.26 35.42 35.27 34.01 33.22
44.20 42.50 44.15 44.81 44.85 45.07 44.88 45.14 45.19 45.00 45.40 46.19 41.73 40.89 38.98 39.34 39.26 38.95 37.88 37.01 39.11 36.84 38.13 37.65 36.70 36.76 36.04 35.78 36.45 36.18 37.34 37.84 37.78 38.02 37.72 37.62 37.24 35.82 35.07 35.05 34.67 33.14 32.23
44.35 44.12 44.64 45.14 45.11 45.06 45.35 45.19 45.25 45.02 44.93 45.30 45.79 41.37 39.60 38.14 37.52 37.26 37.09 43.01 42.35 40.93 39.71 38.08 38.20 38.09 37.61 37.47 37.44 37.77 37.59 37.74 38.02 37.69 37.49 36.99 36.59 35.61 35.08 34.97 33.81 29.02 29.42
45.28 43.32 42.51 44.67 45.04 44.70 45.21 44.87 44.85 44.61 44.98 45.09 45.00 45.26 45.02 40.06 42.42 42.67 41.03 41.12 41.74 42.24 42.39 40.83 39.97 39.62 38.76 38.13 37.96 37.82 38.04 37.75 37.50 36.54 36.55 36.22 36.28 35.61 34.60 33.96 32.75 31.40 31.41
45.86 45.92 41.01 45.22 46.13 45.91 45.80 45.16 45.55 45.28 44.46 43.83 43.79 43.19 36.65 42.78 43.19 43.17 43.46 42.50 42.29 42.77 42.99 42.84 41.77 40.77 39.05 38.47 38.00 38.11 37.94 37.96 36.73 35.97 35.35 36.12 36.52 34.64 34.73 33.41 32.39 31.97 31.41
47.03 47.25 47.22 46.29 46.78 45.96 45.72 46.09 45.05 44.18 43.42 42.41 42.70 41.56 33.51 40.73 42.18 42.77 42.92 43.11 43.76 43.46 43.27 42.62 42.16 42.21 41.23 39.60 39.01 38.19 37.38 37.04 37.31 36.98 36.68 36.39 35.20 34.52 33.86 32.60 32.32 31.53 30.99
47.26 47.13 46.82 46.56 46.73 42.77 43.97 44.83 43.74 42.78 42.69 42.06 42.23 42.01 40.80 40.28 39.86 40.09 40.67 41.64 41.92 41.53 41.97 41.27 40.96 41.01 40.30 39.94 40.26 39.29 38.30 38.83 38.42 37.96 37.36 36.44 35.65 33.62 32.93 32.04 31.89 30.72 29.86
46.72 46.75 46.60 46.34 45.84 44.99 43.83 43.91 42.85 38.61 42.01 41.68 41.18 40.23 39.61 39.40 39.59 40.12 40.92 41.92 42.88 43.55 43.85 43.85 43.76 43.82 43.94 42.86 42.45 41.67 40.15 39.62 39.52 38.77 37.97 36.70 34.64 32.61 32.68 32.08 31.57 30.21 29.50
46.96 46.72 46.39 46.48 45.69 44.65 43.49 42.35 41.14 39.99 39.86 39.54 39.08 38.78 38.80 38.56 38.70 39.80 40.19 40.34 41.78 40.89 40.57 41.07 41.99 42.12 41.46 40.80 40.56 40.03 36.50 33.99 36.78 33.54 34.95 33.23 32.45 32.05 32.10 31.34 30.68 29.65 29.81
45.76 45.80 46.21 46.26 45.51 43.30 41.66 40.00 38.30 39.14 39.32 38.72 38.42 38.46 38.43 38.31 37.84 38.09 38.70 39.33 39.46 39.60 39.69 40.04 40.03 40.06 40.03 39.64 39.19 35.57 34.32 33.16 33.94 30.24 33.21 33.20 32.70 32.20 31.45 30.31 29.87 29.82 29.76
MSLP
1015.24 1015.93 1016.54 1017.43 1017.98 1016.02 1019.09 1018.97 1019.81 1019.23 1019.73 1019.68 1019.93 1021.03 1020.38 1021.45 1022.48 1021.80 1022.89 1023.40 1023.57 1024.27 1024.55 1024.62 1024.90 1024.98 1025.17 1025.39 1025.35 1025.65 1025.92 1026.02 1026.88 1028.06 1028.46 1028.65 1028.71 1028.53 1028.54 1028.29 1028.11 1027.84 1027.53
1016.12 1016.92 1017.53 1018.19 1018.22 1017.74 1018.97 1019.76 1020.38 1019.98 1019.89 1020.39 1019.97 1021.15 1021.80 1022.27 1022.00 1022.09 1022.76 1023.47 1023.84 1024.58 1024.91 1025.03 1025.00 1025.55 1025.68 1026.11 1025.75 1026.20 1026.39 1026.49 1026.79 1027.73 1028.08 1028.30 1028.48 1028.18 1028.26 1028.19 1027.76 1027.63 1027.21
1017.28 1017.68 1018.88 1018.45 1018.41 1018.46 1019.23 1019.79 1020.03 1020.25 1020.61 1020.47 1021.12 1021.06 1022.27 1021.59 1021.92 1022.17 1023.01 1023.49 1024.28 1024.72 1024.72 1024.88 1025.08 1025.42 1026.06 1026.25 1026.40 1026.69 1026.89 1027.16 1026.98 1027.49 1027.61 1028.05 1028.09 1028.13 1028.06 1027.87 1027.62 1027.61 1027.20
1018.43 1018.77 1019.06 1018.63 1019.32 1019.71 1019.36 1020.05 1020.08 1020.58 1021.04 1021.63 1021.65 1021.27 1021.37 1021.52 1022.08 1022.41 1023.19 1023.81 1024.21 1024.38 1024.91 1024.81 1024.99 1025.34 1025.63 1025.98 1026.32 1026.54 1026.92 1027.17 1027.17 1027.32 1027.55 1027.81 1027.87 1027.73 1028.03 1027.79 1027.34 1027.12 1026.71
1018.92 1019.36 1019.88 1019.19 1019.27 1019.44 1020.07 1020.84 1021.48 1021.26 1020.88 1021.34 1021.91 1021.55 1021.39 1021.93 1022.15 1022.69 1022.92 1023.39 1023.85 1024.36 1024.78 1024.94 1025.11 1025.12 1024.91 1025.48 1025.72 1026.27 1026.54 1026.62 1026.51 1026.56 1026.73 1027.01 1027.43 1027.19 1026.98 1026.99 1026.83 1026.56 1026.15
1019.23 1019.48 1019.59 1019.64 1019.75 1020.09 1020.62 1020.99 1021.63 1021.86 1021.73 1021.77 1022.53 1022.33 1022.39 1021.98 1021.98 1022.21 1022.76 1023.32 1023.99 1024.48 1024.79 1024.81 1024.97 1024.73 1024.94 1025.07 1025.15 1025.55 1025.85 1025.96 1025.96 1025.96 1025.81 1025.85 1026.26 1026.61 1026.61 1026.39 1026.15 1026.02 1025.33
1019.25 1019.44 1019.71 1020.09 1020.35 1020.93 1021.34 1021.53 1021.71 1022.10 1022.11 1022.28 1022.51 1022.55 1022.59 1022.38 1021.98 1022.22 1022.37 1023.00 1023.95 1024.31 1024.86 1024.79 1024.64 1024.80 1024.97 1025.08 1025.15 1025.17 1024.99 1025.07 1024.97 1025.29 1025.33 1025.63 1025.76 1025.76 1026.13 1025.91 1025.89 1025.45 1024.91
1019.30 1019.44 1019.75 1020.12 1020.58 1021.04 1021.43 1021.50 1021.79 1022.07 1022.27 1022.24 1022.11 1022.11 1022.53 1022.40 1022.14 1022.43 1022.69 1023.25 1023.76 1024.06 1024.42 1024.35 1024.51 1024.47 1024.90 1024.89 1024.86 1024.95 1024.90 1024.81 1024.66 1024.75 1024.80 1025.16 1025.32 1025.46 1025.74 1025.53 1025.36 1024.88 1024.43
1019.37 1019.41 1019.66 1020.07 1020.54 1020.92 1021.21 1021.52 1021.69 1021.63 1021.79 1021.75 1021.73 1022.21 1022.41 1022.38 1022.23 1022.55 1022.87 1023.22 1023.79 1024.10 1024.09 1024.14 1024.15 1024.21 1024.01 1024.54 1024.66 1024.66 1024.77 1024.82 1024.97 1024.77 1024.99 1025.17 1024.96 1025.11 1025.12 1025.10 1024.67 1024.40 1023.04
1019.25 1019.03 1019.34 1019.64 1020.10 1020.44 1020.86 1021.09 1021.21 1021.34 1021.47 1021.74 1022.07 1022.21 1022.18 1021.97 1022.04 1022.30 1023.17 1023.32 1023.53 1023.75 1023.51 1023.46 1023.52 1023.39 1023.71 1023.75 1024.10 1024.25 1024.60 1024.60 1024.84 1024.64 1024.70 1024.71 1024.82 1024.32 1024.37 1024.38 1023.95 1023.62 1023.00
1018.90 1018.90 1018.97 1019.16 1019.42 1019.94 1020.39 1020.72 1021.01 1021.37 1021.70 1021.77 1021.66 1021.74 1021.67 1021.89 1022.30 1022.42 1022.83 1022.96 1022.86 1023.12 1022.93 1022.99 1022.89 1023.20 1023.36 1023.73 1023.96 1024.11 1024.25 1024.49 1024.62 1024.83 1024.46 1024.23 1023.88 1023.61 1023.29 1023.16 1023.18 1023.14 1022.53
1018.53 1018.64 1018.69 1018.72 1018.85 1019.26 1019.86 1020.37 1020.64 1021.03 1021.11 1021.22 1021.30 1021.57 1021.65 1021.68 1021.90 1021.88 1022.04 1022.07 1022.06 1022.65 1022.83 1022.80 1022.96 1023.36 1023.48 1023.63 1023.78 1023.88 1024.23 1024.40 1024.49 1024.35 1024.08 1023.54 1023.10 1022.78 1022.46 1022.30 1022.25 1022.08 1021.91
1018.40 1018.27 1018.29 1018.42 1018.66 1019.09 1019.50 1019.89 1020.32 1020.54 1020.73 1021.15 1021.32 1021.45 1021.34 1021.57 1021.43 1021.23 1021.49 1021.49 1021.89 1022.14 1022.53 1022.66 1022.71 1023.00 1023.29 1023.57 1023.73 1023.69 1023.44 1023.61 1023.75 1023.63 1023.21 1022.74 1022.48 1022.15 1022.01 1021.76 1021.53 1021.18 1021.07
1017.72 1017.83 1018.07 1018.32 1018.60 1018.93 1019.27 1019.47 1019.82 1020.18 1020.59 1020.82 1020.87 1020.95 1020.89 1021.17 1021.25 1021.28 1021.42 1021.73 1021.89 1022.05 1022.29 1022.44 1022.79 1022.92 1023.28 1023.34 1022.82 1022.91 1022.88 1022.92 1022.96 1022.72 1022.33 1022.05 1021.88 1021.73 1021.46 1021.25 1021.05 1020.69 1020.48
1017.75 1017.80 1018.02 1018.26 1018.48 1018.65 1018.94 1019.14 1019.42 1019.49 1019.71 1019.89 1020.02 1020.26 1020.51 1020.63 1020.52 1020.62 1021.10 1021.64 1021.94 1022.17 1022.58 1022.86 1022.87 1022.66 1022.52 1022.36 1022.36 1022.26 1022.12 1021.99 1021.92 1021.81 1021.77 1021.39 1021.11 1021.00 1020.72 1020.66 1020.65 1020.40 1020.07
1017.81 1017.98 1018.00 1018.18 1018.37 1018.63 1018.81 1018.96 1018.99 1018.98 1019.16 1019.41 1019.67 1019.77 1019.89 1020.02 1020.17 1020.40 1020.79 1021.18 1021.60 1022.08 1022.48 1022.28 1022.08 1022.00 1021.80 1021.69 1021.56 1021.35 1021.18 1021.09 1021.01 1020.98 1020.82 1020.72 1020.55 1020.40 1020.19 1020.14 1020.13 1019.91 1019.40
1017.09 1017.29 1017.56 1017.78 1018.05 1018.29 1018.55 1018.74 1018.86 1018.72 1018.88 1018.93 1019.05 1019.21 1019.50 1019.59 1019.80 1019.96 1020.12 1020.53 1021.00 1021.53 1021.41 1021.24 1021.18 1021.08 1020.86 1020.84 1020.76 1020.72 1020.39 1020.05 1020.11 1020.03 1019.89 1019.69 1019.68 1019.67 1019.82 1019.63 1019.49 1019.27 1018.66
1016.17 1016.51 1016.87 1017.01 1017.28 1017.54 1017.77 1017.94 1018.17 1018.36 1018.32 1018.28 1018.28 1018.59 1018.68 1018.82 1019.13 1019.42 1019.90 1020.51 1020.78 1020.76 1020.16 1020.02 1019.89 1019.80 1019.75 1019.74 1019.69 1019.62 1019.57 1019.58 1019.46 1019.29 1019.24 1019.16 1019.07 1019.03 1019.15 1019.04 1018.98 1018.78 1018.24
1015.33 1015.76 1016.08 1016.23 1016.38 1016.61 1016.86 1017.17 1017.40 1017.63 1017.81 1017.93 1018.02 1018.28 1018.03 1018.18 1018.55 1018.86 1019.12 1019.16 1019.10 1019.12 1018.97 1018.99 1018.78 1018.68 1018.60 1018.56 1018.53 1018.57 1018.58 1018.37 1018.43 1018.60 1018.47 1018.51 1018.46 1018.42 1018.39 1018.49 1018.49 1018.39 1017.94
1014.26 1014.54 1014.99 1015.37 1015.64 1015.91 1016.12 1016.37 1016.57 1016.78 1016.99 1017.16 1017.28 1017.20 1017.30 1017.84 1017.90 1017.77 1017.94 1017.99 1017.95 1017.85 1017.79 1017.91 1017.83 1017.82 1017.73 1017.76 1017.70 1017.63 1017.36 1017.27 1017.49 1017.45 1017.42 1018.09 1018.06 1018.01 1017.95 1018.03 1018.08 1017.87 1017.27
1013.20 1013.54 1013.93 1014.38 1014.67 1014.86 1015.12 1015.39 1015.51 1015.78 1015.99 1016.20 1016.26 1016.24 1016.57 1016.87 1016.80 1016.72 1016.75 1016.88 1016.90 1016.79 1016.62 1016.67 1016.82 1016.81 1016.79 1016.75 1016.68 1016.63 1016.58 1016.42 1016.42 1016.52 1016.91 1017.08 1017.35 1017.51 1017.52 1017.73 1017.73 1017.44 1016.80
1012.06 1012.46 1012.84 1013.23 1013.50 1013.96 1014.18 1014.34 1014.68 1014.96 1015.23 1015.41 1015.37 1015.57 1016.00 1016.15 1015.93 1015.87 1015.89 1015.90 1015.97 1016.13 1016.17 1016.17 1016.06 1015.92 1015.81 1015.71 1015.67 1015.89 1016.04 1016.08 1016.07 1016.13 1016.49 1016.67 1016.82 1017.05 1017.21 1017.34 1017.30 1016.98 1016.35
1011.13 1011.54 1011.86 1012.13 1012.43 1012.74 1013.14 1013.52 1013.86 1014.20 1014.45 1014.73 1014.96 1015.14 1015.43 1015.66 1015.86 1016.06 1016.09 1016.04 1016.04 1016.05 1016.00 1015.99 1015.85 1015.68 1015.58 1015.32 1015.13 1015.12 1015.22 1015.01 1015.21 1015.77 1016.10 1016.33 1016.68 1016.89 1016.97 1017.01 1016.94 1016.47 1015.90
1010.36 1010.66 1010.99 1011.24 1011.51 1011.88 1012.22 1012.63 1013.18 1013.43 1013.86 1014.44 1014.99 1015.52 1015.93 1016.15 1016.30 1016.44 1016.46 1016.35 1016.17 1015.96 1015.78 1015.66 1015.40 1015.05 1014.78 1014.66 1014.60 1014.58 1014.67 1014.81 1015.17 1015.39 1015.70 1016.07 1016.26 1016.69 1016.78 1016.75 1016.50 1016.12 1015.58
1009.41 1009.76 1010.06 1010.34 1010.64 1011.00 1011.33 1011.93 1012.68 1013.43 1013.97 1014.43 1015.02 1015.51 1015.93 1016.26 1016.42 1016.54 1016.66 1016.63 1016.24 1015.91 1015.64 1015.50 1015.19 1014.76 1014.74 1014.69 1014.64 1014.68 1014.80 1015.02 1015.26 1015.51 1015.67 1015.95 1016.28 1016.54 1016.53 1016.45 1016.23 1015.78 1015.17
1008.88 1009.29 1009.78 1010.05 1010.00 1010.28 1010.85 1011.54 1012.37 1013.02 1014.11 1014.62 1014.94 1015.58 1016.11 1016.45 1016.71 1016.77 1016.75 1016.67 1016.45 1016.26 1015.92 1015.56 1015.32 1015.08 1014.95 1015.03 1015.00 1014.97 1014.93 1015.11 1015.31 1015.54 1015.69 1016.05 1016.32 1016.29 1016.29 1016.18 1015.91 1015.42 1014.84
Wind_Speed
9 8 8 8 8 14 8 9 2 5 5 6 9 8 10 10 6 9 8 7 10 8 7 8 8 6 6 5 6 5 6 3 6 2 0 0 2 3 4 4 5 5 5
10 9 8 7 9 11 8 5 7 6 5 6 7 8 7 8 7 9 9 8 9 8 7 7 7 6 7 4 5 6 6 5 4 3 2 1 3 2 3 4 3 4 4
10 10 7 8 8 9 9 7 6 6 5 6 7 9 8 8 8 8 8 8 7 7 6 7 6 6 5 3 4 4 3 3 3 2 1 1 1 2 2 3 3 5 5
8 8 8 9 8 6 6 6 9 7 6 5 5 7 7 7 8 9 8 7 6 6 5 5 6 6 5 4 3 3 3 3 3 2 1 2 3 3 3 4 5 3 6
9 8 6 7 8 9 9 6 6 5 8 7 5 5 7 7 7 8 8 7 6 5 3 4 4 5 8 7 4 5 4 3 3 4 3 3 3 3 4 2 4 6 6
7 7 6 6 6 7 6 6 7 5 4 6 5 6 5 5 11 13 9 6 5 4 3 1 1 1 2 5 7 9 8 5 4 4 3 5 4 4 3 4 5 4 6
5 6 5 4 5 4 5 5 5 4 4 5 4 4 3 3 7 9 9 4 3 3 3 2 2 2 3 3 6 7 6 8 11 4 5 5 4 4 3 7 6 6 9
3 5 5 5 4 3 2 3 4 3 4 3 3 3 2 1 2 2 3 3 2 3 4 4 5 5 6 6 4 5 4 5 4 3 6 7 6 7 7 6 8 9 9
3 3 4 6 6 6 6 5 4 4 4 3 1 3 3 3 4 4 3 2 3 6 6 6 6 7 8 7 5 5 4 4 2 3 6 8 10 10 10 6 7 7 11
5 5 5 6 7 7 6 5 3 2 3 3 4 4 5 3 3 4 5 3 5 5 5 6 8 8 6 7 6 5 4 4 2 4 6 7 7 8 11 9 6 8 9
5 5 5 6 6 6 5 4 4 4 4 4 3 2 4 5 6 9 9 5 5 5 5 5 2 6 5 4 5 3 5 3 5 5 6 7 7 7 6 5 7 7 8
8 5 6 6 5 5 5 4 3 4 4 3 3 3 3 4 8 5 6 9 5 4 5 2 2 4 5 6 5 7 10 8 5 6 6 7 6 7 7 6 7 8 8
7 7 6 4 4 4 5 5 3 3 3 3 3 3 3 3 3 3 4 4 6 4 2 3 5 6 6 5 8 9 7 5 6 6 7 7 6 6 7 7 7 9 8
5 5 4 5 5 4 3 3 3 3 3 3 3 4 3 3 3 2 2 2 4 3 3 3 4 5 6 7 5 6 4 5 5 6 7 7 6 5 6 5 6 7 8
3 4 4 3 4 4 3 4 5 5 5 4 5 4 3 4 5 6 7 5 5 5 3 2 3 4 5 5 5 6 5 5 6 6 7 8 7 6 7 6 6 7 7
5 4 4 4 4 3 3 3 7 9 7 11 7 6 4 7 5 10 12 11 9 10 3 4 5 6 7 6 6 7 6 7 7 6 6 6 7 7 7 7 6 7 9
8 6 4 5 4 4 4 4 5 3 11 12 12 12 12 7 11 10 12 11 11 11 6 6 7 7 8 7 8 8 8 7 5 6 6 7 6 7 6 7 8 8 10
7 8 6 6 6 5 6 6 4 4 4 3 7 9 11 13 12 13 8 8 4 7 6 9 9 8 8 9 8 9 8 7 7 7 7 7 6 5 7 8 8 9 10
8 6 7 6 6 6 5 5 5 5 6 6 3 4 10 11 7 9 14 8 9 9 9 10 10 9 9 9 9 9 9 8 7 6 6 6 6 5 7 8 8 9 11
9 13 10 7 6 6 6 7 7 7 7 7 6 7 2 3 5 6 8 8 9 10 9 9 9 9 9 9 9 9 9 8 8 6 4 6 6 5 7 7 7 9 11
8 9 11 8 8 7 7 7 7 7 7 7 7 6 5 6 6 7 7 8 9 10 10 9 9 10 9 9 9 9 9 7 6 4 2 5 6 6 5 5 7 9 11
8 8 7 9 8 7 8 7 7 7 7 7 6 4 7 6 6 7 7 7 7 7 7 8 9 9 8 8 8 7 6 6 4 4 5 6 4 5 4 5 7 9 11
8 8 8 7 8 8 7 7 7 7 7 6 6 5 3 3 3 4 4 4 4 5 5 6 7 7 6 5 6 8 10 8 6 4 4 1 5 5 3 5 8 10 10
9 10 10 9 7 8 8 7 7 6 5 2 2 4 3 3 3 5 5 5 5 4 4 5 6 9 8 7 5 5 5 3 3 2 1 5 5 3 4 6 8 11 11
8 9 9 9 9 9 7 6 5 5 6 6 6 5 4 4 4 4 4 4 4 2 4 4 5 5 3 3 3 3 4 3 2 2 2 4 4 4 4 6 9 10 12
5 6 6 6 6 6 7 7 7 8 6 6 7 6 5 5 4 4 4 4 4 4 5 4 4 6 6 4 4 3 3 1 3 4 4 2 2 4 5 8 11 9 12
Wind_Direction
89 87 80 101 125 101 118 114 79 73 99 97 118 131 112 119 134 107 99 100 92 82 69 84 81 76 72 68 73 71 75 74 107 116 207 249 296 338 342 346 333 327 330
84 93 100 127 119 106 90 114 138 129 122 117 100 112 112 130 117 109 108 108 109 112 110 98 93 92 74 72 85 85 85 82 116 121 156 193 232 260 282 299 306 297 296
92 92 91 90 97 105 124 126 115 116 106 103 128 123 146 122 113 111 115 114 118 124 126 121 120 106 97 87 78 84 82 73 78 116 142 176 279 268 291 278 286 284 277
91 94 105 91 76 56 87 131 132 120 104 112 124 120 114 115 121 118 123 123 124 117 120 128 142 139 141 149 152 147 151 148 149 157 212 245 236 243 251 280 302 284 292
86 83 68 85 100 101 87 62 31 85 120 114 105 100 117 126 133 137 135 132 127 125 128 133 152 173 174 182 167 183 176 200 197 204 219 213 248 246 245 228 269 293 287
103 111 107 89 82 90 95 105 98 71 89 117 133 132 141 139 144 150 137 129 117 133 158 171 241 279 221 198 204 202 202 205 223 207 221 231 244 243 233 272 284 295 302
123 120 115 112 116 141 145 133 124 151 134 136 151 151 141 131 119 141 140 118 143 165 206 227 287 261 246 216 220 232 236 240 229 216 251 248 252 242 276 285 276 269 273
118 118 132 136 147 161 170 157 149 161 173 163 161 133 157 184 55 61 142 155 213 245 237 226 232 245 239 236 268 289 291 283 260 233 224 255 241 265 248 268 276 279 275
140 196 161 172 179 173 180 185 186 167 170 181 163 185 200 236 215 226 162 181 246 256 245 237 228 251 257 237 253 271 288 284 291 284 252 247 255 261 267 280 270 283 295
234 239 197 193 192 190 188 182 175 179 190 186 204 211 221 257 266 237 202 209 232 244 254 250 240 233 239 244 222 212 230 248 296 312 294 280 269 273 272 245 262 275 289
247 230 222 194 189 180 175 170 177 187 198 212 226 231 231 226 231 217 201 214 225 247 250 265 262 224 214 239 226 202 224 189 276 274 282 286 285 280 269 250 239 247 274
278 264 241 205 193 169 176 179 184 192 205 217 233 263 247 233 235 236 223 210 208 228 255 259 223 224 235 248 235 226 230 240 271 281 284 277 272 275 282 282 274 262 253
234 235 225 204 184 175 180 188 193 197 199 222 203 225 245 235 242 235 212 190 180 174 197 202 190 221 233 239 237 246 253 252 262 260 266 264 264 269 282 278 275 276 269
232 205 197 185 178 181 190 181 178 177 194 218 225 241 253 257 246 208 210 208 200 200 218 223 224 222 227 243 252 248 247 244 243 255 261 267 278 271 278 285 286 293 292
222 176 176 184 189 179 199 189 196 216 187 198 222 215 221 251 240 194 185 199 205 212 174 222 228 226 236 245 250 254 247 231 233 244 255 265 273 280 282 285 272 289 277
192 205 195 187 186 197 194 236 244 240 233 242 235 202 219 233 194 198 203 202 190 163 196 228 240 242 251 258 257 256 248 249 248 250 261 264 272 282 287 283 278 278 291
201 200 200 195 195 193 206 212 236 221 235 238 237 230 226 224 208 206 202 194 191 166 227 228 246 243 248 248 249 246 254 255 253 259 260 263 267 277 266 279 287 287 292
203 201 198 201 204 203 208 215 213 233 262 274 222 217 220 217 214 215 184 148 184 221 230 234 239 241 240 240 243 242 248 256 257 259 263 262 265 257 277 280 285 292 297
202 210 209 216 213 214 206 211 218 223 232 245 249 229 233 236 213 180 169 218 228 232 231 237 239 244 245 244 243 246 244 241 244 259 259 263 255 257 269 276 284 286 293
206 213 200 211 217 212 213 218 222 222 228 232 237 244 224 157 216 218 217 225 233 242 250 247 254 249 249 250 248 244 243 231 236 226 232 262 265 263 269 278 287 295 301
203 210 207 210 218 218 221 216 219 219 226 231 237 241 201 210 241 238 234 223 227 237 247 252 259 257 250 251 251 253 252 254 225 207 228 246 254 260 257 270 286 294 301
198 204 196 207 214 217 223 219 217 221 229 235 244 250 193 225 243 250 251 252 251 251 255 256 261 263 260 254 247 244 246 228 207 199 235 254 268 257 257 280 293 299 307
205 209 208 209 209 214 212 214 210 216 228 232 244 251 239 263 289 298 301 307 305 300 294 282 276 269 252 239 229 230 233 233 208 167 212 295 267 254 262 287 298 306 310
209 210 215 218 212 210 206 206 216 209 215 219 90 73 63 40 16 353 342 331 316 300 296 281 275 282 295 294 275 251 236 148 135 134 254 262 252 224 272 291 304 307 304
205 205 208 213 209 208 197 194 156 141 142 139 132 118 93 68 48 39 25 358 340 41 25 355 329 319 332 28 60 83 95 83 52 182 205 205 220 259 295 306 306 305 305
194 204 232 244 213 181 170 157 154 147 145 136 121 113 103 95 81 62 32 13 8 12 4 357 360 24 20 22 14 359 325 263 183 142 141 173 256 297 314 305 306 310 307